Weather in Drovyanaya

Russia / Zabaykalsky Krai     51°34′46″N   113°02′45″E
temp.,
°C
wind,
m/s
gust,
m/s
humid.,
%
clouds,
%
prec.,
mm/h
press.,
hPa
HPBL,
m
7 may, fri
fri700:00+3w41050100 0.0 1007351
03:00−1sw236099 0.0 100648
06:000wsw3668100 0.1 1003324
09:00+3wnw346198 0.1 10021165
12:00+5nnw4647100 0.2 10011788
15:00+9n5834100 0.2 10002070
18:00+9nne474797 0.5 10021717
21:00+6nw116232 1.0 100615
8 may, sat
sat800:00+2wsw117748 0.3 100910
03:000sw128875 0.3 101115
06:00−1sw229131 0.0 101216
09:00+5w23635 0.0 1011528
12:00+11nnw463399 0.1 10082790
15:00+12nw362975 0.1 10062666
18:00+13nw462498 0.0 10042812
21:00+7w2250100 0.1 100643
9 may, sun
sun900:00+5se015698 0.1 100711
03:00+3w1161100 0.1 100810
06:00+2sw226820 0.0 101037
09:00+7w334897 0.0 1010639
12:00+11nw3533100 0.0 10072396
15:00+13nw3430100 0.0 10062495
18:00+11ssw234337 0.1 1006965
21:00+6ese227293 0.9 100824
10 may, mon
mon1000:00+5ese118338 0.8 101017
03:00+2sse118988 0.8 101110
06:00+2ese118983 0.0 101110
09:00+7ese3568100 0.0 1009430
12:00+11se5845100 0.0 10061703
15:00+8sse3670100 1.2 10071023
18:00+7ese3684100 3.8 1007795
21:00+4w3397100 9.9 1009303
11 may, tue
tue1100:00+3w2398100 2.2 1008206
03:00+4e71491100 4.4 1005945
06:00+4ne4989100 2.6 1007720
09:00+6n357599 2.8 1008712
12:00+10ne3547100 0.3 10071945
15:00+12ne2338100 0.3 10062047
18:00+13e123799 0.0 10061982
21:00+7sw377683 0.1 1009166